This is the latest recevied weather packets stored in our database for station/object WE8M. If no packets are shown the sender has not sent any weather packets the latest 10 day(s).
| Time | Temp. | Humidity | Pressure | Rain* | Wind** | Luminosity | Snow |
|---|---|---|---|---|---|---|---|
| 1777396144 | 20° C | 81% | 1015.2 hPa | 0 mm | - | - | - |
| 1777395840 | 20° C | 81% | 1015.3 hPa | 0 mm | - | - | - |
| 1777395536 | 20° C | 81% | 1015.3 hPa | 0 mm | - | - | - |
| 1777395232 | 20° C | 82% | 1015.2 hPa | 0 mm | - | - | - |
| 1777394930 | 20° C | 81% | 1015.1 hPa | 0 mm | - | - | - |
| 1777394626 | 20° C | 83% | 1015.5 hPa | 0 mm | - | - | - |
| 1777394322 | 19.44° C | 86% | 1015.2 hPa | 0 mm | - | - | - |
| 1777394019 | 19.44° C | 86% | 1015.4 hPa | 0 mm | - | - | - |
| 1777393718 | 18.89° C | 88% | 1015.2 hPa | 0 mm | - | - | - |
| 1777393414 | 18.33° C | 88% | 1015.3 hPa | 0 mm | - | - | - |
| 1777393111 | 18.33° C | 89% | 1015.4 hPa | 0 mm | - | - | - |
| 1777392807 | 18.33° C | 89% | 1015.3 hPa | 0 mm | - | - | - |
| 1777392503 | 18.33° C | 89% | 1015.3 hPa | 0 mm | - | - | - |
| 1777392199 | 18.33° C | 89% | 1015.3 hPa | 0 mm | - | - | - |
| 1777391894 | 18.33° C | 88% | 1015.1 hPa | 0 mm | - | - | - |
| 1777391589 | 18.33° C | 90% | 1015.3 hPa | 0 mm | - | - | - |
| 1777391286 | 18.33° C | 89% | 1015.3 hPa | 0 mm | - | - | - |
| 1777390982 | 18.89° C | 89% | 1014.9 hPa | 0 mm | - | - | - |
| 1777390678 | 18.33° C | 91% | 1015.3 hPa | 0 mm | - | - | - |
| 1777390375 | 18.33° C | 91% | 1015.1 hPa | 0 mm | - | - | - |
| 1777390070 | 18.33° C | 92% | 1015.3 hPa | 0 mm | - | - | - |
| 1777389768 | 17.78° C | 94% | 1015.1 hPa | 0 mm | - | - | - |
| 1777389464 | 17.78° C | 95% | 1015.1 hPa | 0 mm | - | - | - |
| 1777389162 | 17.22° C | 94% | 1015.2 hPa | 0 mm | - | - | - |
| 1777388860 | 16.67° C | 94% | 1015.1 hPa | 0 mm | - | - | - |
* Rain latest hour (hover to see other rain measurements)
** Current wind speed in m/s (hover to see current wind gust speed)